LA8QT Lodingen NO current weather conditions

sailwx.info

Wind from 240 at 6 knots

Air temperature 7.8° C
Dewpoint 5.1° C

Last reported at 2016-May-06 06:46 UTC.
Time now 2016-May-06 07:17 UTC

Location: N 68°28' E 016°04'.
View on Google Maps.

See reports from other nearby stations

  
Tides and Currents Weather Stations Pressure Air Temp Water Temp Dewpoint Dewpoint Depression Visibility Wind Speed Wind Dir Waves Ship Positions
date/time (UTC)wind fromknots sea level pressurealtimeterstation pressurevisibilityair tempwater tempwave heightnotes
2016-May-06 06:46 240 6 7.8
2016-May-06 06:31 215 4 7.8
2016-May-06 06:16 207 3 7.8
2016-May-06 06:01 185 0 7.2
2016-May-06 05:46 183 7.2
2016-May-06 05:31 183 6.7
2016-May-06 05:16 185 6.7
2016-May-06 05:01 183 1 6.7
2016-May-06 04:46 140 6.7
2016-May-06 04:30 139 6.7
2016-May-06 04:15 138 0 7.2
2016-May-06 04:00 073 7.2
2016-May-06 03:45 359 7.2
2016-May-06 03:30 359 0 7.2
2016-May-06 03:15 358 7.2
2016-May-06 03:00 014 2 7.2
2016-May-06 02:45 335 7.2
2016-May-06 02:30 334 7.2
2016-May-06 02:15 333 6.7
2016-May-06 02:00 333 6.7
2016-May-06 01:45 333 0 6.1
2016-May-06 01:30 001 6.1
2016-May-06 01:15 001 1 6.7
2016-May-06 01:00 001 4 6.7
2016-May-06 00:45 006 1 7.2
2016-May-06 00:30 358 2 7.2
2016-May-06 00:15 001 4 7.2
2016-May-06 00:00 356 4 6.7
2016-May-05 23:45 005 3 6.7
2016-May-05 23:30 004 6.7
2016-May-05 23:15 003 7.2
2016-May-05 23:00 004 7.2
2016-May-05 22:45 003 6.7
2016-May-05 22:30 003 0 6.7
2016-May-05 22:15 351 0 6.7
2016-May-05 22:00 348 6.7
2016-May-05 21:45 026 6.7
2016-May-05 21:30 026 6.7
2016-May-05 21:15 026 3 7.2
2016-May-05 21:00 216 7.2
2016-May-05 20:45 215 7.2
2016-May-05 20:30 215 7.8
2016-May-05 20:15 216 8.3
2016-May-05 20:00 217 0 8.9
2016-May-05 19:45 217 8.3
2016-May-05 19:30 216 8.3
2016-May-05 19:15 216 8.3
2016-May-05 19:00 216 2 8.3
2016-May-05 18:45 206 1 7.8
2016-May-05 18:30 206 7.8
2016-May-05 18:15 206 1 7.8
2016-May-05 18:00 204 3 8.3
2016-May-05 17:45 171 2 8.3
2016-May-05 17:30 135 4 8.9
2016-May-05 17:15 125 3 9.4
2016-May-05 17:00 164 7 8.9
2016-May-05 16:45 164 4 8.9
2016-May-05 16:30 153 5 9.4
2016-May-05 16:15 153 8 8.9
2016-May-05 16:00 212 5 10.6
2016-May-05 15:45 197 10 11.1
2016-May-05 15:29 222 11 11.1
2016-May-05 15:14 230 12 11.1
2016-May-05 14:59 224 12 11.1
2016-May-05 14:44 234 13 11.1
2016-May-05 14:29 216 11 11.1
2016-May-05 13:59 202 11 11.7
2016-May-05 13:44 216 9 11.7
2016-May-05 13:29 207 11 12.2
2016-May-05 13:14 216 13 11.7
2016-May-05 12:59 295 11 11.7
2016-May-05 12:44 208 12 11.7
2016-May-05 12:29 216 9 11.7
2016-May-05 12:14 218 10 11.7
2016-May-05 11:59 295 10 11.7
2016-May-05 11:44 210 9 12.2
2016-May-05 11:29 200 5 11.7
2016-May-05 11:14 167 4 10.0
2016-May-05 10:59 145 5 10.6
2016-May-05 10:44 140 5 10.6
2016-May-05 10:29 178 7 10.6
2016-May-05 10:14 177 6 11.1
2016-May-05 09:59 181 6 11.1
2016-May-05 09:44 295 5 11.7
2016-May-05 09:29 189 4 11.1
2016-May-05 09:14 185 3 11.1
2016-May-05 08:59 199 4 10.6
2016-May-05 08:44 187 3 10.6
2016-May-05 08:29 194 2 10.6
2016-May-05 08:14 175 0 10.6
2016-May-05 07:59 188 0 10.6
2016-May-05 07:44 094 10.0
2016-May-05 07:29 118 9.4
2016-May-05 07:14 204 9.4
2016-May-05 06:59 204 9.4
2016-May-05 06:44 204 9.4
2016-May-05 06:29 208 8.9
2016-May-05 06:14 208 8.9
2016-May-05 05:59 208 8.9
2016-May-05 05:44 210 2 8.3
2016-May-05 05:29 210 0 8.3
2016-May-05 04:59 212 0 8.3
2016-May-05 04:44 212 0 8.3
2016-May-05 04:29 212 8.3
2016-May-05 04:14 212 2 8.3
2016-May-05 03:59 216 2 8.3
2016-May-05 03:48 200 0 7.8
2016-May-05 03:29 199 0 7.8
2016-May-05 03:13 198 7.2
2016-May-05 02:58 198 6.7
2016-May-05 02:46 199 6.7
2016-May-05 02:28 221 7.2
2016-May-05 02:13 221 7.2
2016-May-05 01:58 221 7.2
2016-May-05 01:43 221 2 7.2
2016-May-05 01:28 215 3 7.2
2016-May-05 01:13 200 3 6.7
2016-May-05 00:58 183 4 7.2
2016-May-05 00:43 144 4 7.2
2016-May-05 00:28 181 6 7.2
2016-May-05 00:13 179 3 7.2
2016-May-04 23:58 177 6 7.2
2016-May-04 23:43 158 6 7.2
2016-May-04 23:28 179 7 7.2
2016-May-04 23:13 252 10 7.2
2016-May-04 22:58 194 12 7.8
2016-May-04 22:43 204 12 7.8
2016-May-04 22:28 204 11 7.8
2016-May-04 22:13 185 13 7.8
2016-May-04 21:58 195 14 7.8
2016-May-04 21:43 206 13 7.8
2016-May-04 21:28 199 13 7.8
2016-May-04 21:13 212 12 7.8
2016-May-04 20:58 214 11 7.2
2016-May-04 20:43 196 13 7.2
2016-May-04 20:28 189 12 7.2
2016-May-04 20:13 198 12 7.2
2016-May-04 19:58 204 14 7.2
2016-May-04 19:45 211 13 7.2
2016-May-04 19:28 192 13 7.8
2016-May-04 19:13 210 13 7.8
2016-May-04 18:58 195 13 7.8
2016-May-04 18:43 199 14 7.2
2016-May-04 18:28 183 15 7.8
2016-May-04 18:13 197 14 7.8
2016-May-04 18:00 208 15 7.8
2016-May-04 17:43 173 17 7.8
2016-May-04 17:28 194 17 8.3
2016-May-04 17:13 165 17 8.3
2016-May-04 17:00 173 18 8.3
2016-May-04 16:43 176 15 8.3
2016-May-04 16:28 212 15 8.3
2016-May-04 16:13 187 15 7.8
2016-May-04 15:58 237 19 8.3
2016-May-04 15:43 174 16 8.3
2016-May-04 15:28 211 19 8.3
2016-May-04 15:15 170 18 8.9
2016-May-04 14:58 199 18 8.3
2016-May-04 14:43 181 17 8.3
2016-May-04 14:28 206 19 8.9
2016-May-04 14:13 196 16 8.3
2016-May-04 13:58 201 15 8.3
2016-May-04 13:43 207 14 8.3
2016-May-04 13:28 226 13 8.3
2016-May-04 13:13 162 7 7.8
2016-May-04 12:59 161 9 7.2
2016-May-04 12:43 156 7 7.2
2016-May-04 12:28 151 8 7.2
2016-May-04 12:13 155 8 7.2
2016-May-04 11:58 169 8 7.2
2016-May-04 11:43 157 8 7.2
2016-May-04 11:28 173 7 6.7
2016-May-04 11:13 180 9 6.7
2016-May-04 10:58 169 6 6.7
2016-May-04 10:43 160 7 6.7
2016-May-04 10:28 172 6 6.7
2016-May-04 10:13 161 6 6.7
2016-May-04 09:58 170 4 6.7
2016-May-04 09:44 172 6 6.7
2016-May-04 09:27 207 9 6.7
2016-May-04 09:12 187 6 6.7
2016-May-04 08:57 196 9 6.7
2016-May-04 08:42 162 6 6.7
2016-May-04 08:27 202 11 6.7
2016-May-04 08:12 195 8 7.2
2016-May-04 07:57 164 8 7.2
2016-May-04 07:44 180 13 7.2
2016-May-04 07:27 210 7 7.8
2016-May-04 07:12 225 8 7.8